Total_Precipitation_Accumulation
0.61 0.40 0.67 0.78 0.61 0.51 0.48 0.48 0.50 0.54 0.51 0.45 0.45 0.51 0.57 0.54 0.55 0.65 0.81 1.00 1.28 1.58 1.91 2.13 2.23 2.39 2.51 2.51 2.64 2.84 2.73 2.84 3.04 3.01 2.98 3.02 3.00 2.90 3.04 3.07 2.90 2.58 2.63
0.63 0.42 0.59 0.69 0.60 0.51 0.46 0.46 0.50 0.49 0.49 0.45 0.41 0.46 0.62 0.60 0.60 0.68 0.88 1.12 1.33 1.51 1.71 1.90 2.08 2.12 2.18 2.22 2.34 2.66 2.76 2.83 3.12 3.47 3.59 3.50 3.37 3.18 3.12 3.22 3.20 2.98 2.78
0.74 0.58 0.58 0.65 0.60 0.51 0.46 0.47 0.48 0.46 0.48 0.48 0.40 0.39 0.47 0.50 0.57 0.71 0.80 1.05 1.34 1.53 1.72 1.77 1.93 1.86 1.83 1.87 2.12 2.42 2.58 2.82 3.17 3.68 4.13 4.01 3.64 3.57 3.33 3.08 3.03 2.81 2.85
0.70 0.72 0.65 0.68 0.64 0.52 0.47 0.49 0.51 0.47 0.45 0.44 0.40 0.38 0.43 0.52 0.61 0.72 0.79 0.97 1.41 1.70 1.77 1.72 1.82 1.85 1.84 1.92 2.02 2.20 2.44 2.77 3.22 3.54 3.97 3.89 3.84 4.11 3.52 2.91 2.77 2.70 2.80
0.62 0.65 0.73 0.71 0.67 0.60 0.55 0.55 0.55 0.51 0.46 0.47 0.47 0.46 0.53 0.62 0.63 0.71 0.86 0.98 1.28 1.64 1.84 1.84 1.76 1.84 1.80 1.82 1.85 2.06 2.29 2.64 3.16 3.25 3.47 4.06 4.50 4.42 3.73 3.13 2.87 2.76 2.76
0.68 0.66 0.71 0.74 0.77 0.76 0.70 0.65 0.63 0.55 0.52 0.53 0.54 0.56 0.62 0.69 0.74 0.80 1.04 1.28 1.41 1.63 1.70 1.68 1.67 1.76 1.69 1.61 1.68 1.94 2.21 2.63 2.83 2.81 3.32 4.06 4.00 3.93 3.65 3.42 3.10 2.88 2.72
0.73 0.88 0.75 0.75 0.81 0.83 0.81 0.74 0.71 0.64 0.64 0.63 0.64 0.65 0.69 0.77 0.87 0.91 1.14 1.47 1.71 1.83 1.78 1.69 1.62 1.56 1.45 1.44 1.66 1.92 2.22 2.46 2.47 2.90 3.42 3.79 3.63 3.54 3.51 3.39 3.15 2.89 2.69
0.77 0.85 0.81 0.79 0.82 0.83 0.90 0.94 0.90 0.82 0.78 0.76 0.79 0.77 0.70 0.70 0.81 0.99 1.21 1.47 1.73 1.90 1.83 1.68 1.62 1.51 1.43 1.52 1.72 2.00 2.20 2.07 2.00 2.54 3.16 3.36 3.09 3.25 3.45 3.24 3.02 2.81 2.64
0.88 1.00 1.01 1.06 1.05 1.10 1.19 1.18 1.12 1.04 1.00 0.93 0.88 0.81 0.76 0.75 0.84 0.99 1.27 1.50 1.72 1.89 1.84 1.66 1.61 1.56 1.58 1.71 1.81 1.94 1.99 1.97 1.99 2.30 2.84 3.30 2.84 3.05 3.41 3.30 3.03 2.83 2.61
1.36 1.45 1.49 1.55 1.51 1.41 1.34 1.31 1.25 1.18 1.13 1.05 0.93 0.87 0.89 0.92 1.04 1.21 1.25 1.49 1.75 1.89 1.84 1.79 1.74 1.68 1.77 1.89 1.94 2.00 2.10 1.92 1.85 2.15 2.71 2.80 2.74 3.17 3.52 3.34 3.07 2.89 2.63
2.03 2.02 1.90 1.88 1.81 1.78 1.63 1.41 1.48 1.40 1.35 1.28 1.19 1.12 1.19 1.30 1.49 1.60 1.47 1.76 2.01 2.07 2.00 2.03 2.03 1.97 2.05 2.13 2.22 2.07 1.94 1.75 1.93 2.30 2.90 2.94 3.16 3.48 3.70 3.56 3.25 3.00 2.77
2.58 2.45 2.16 2.23 2.21 2.10 1.95 1.92 1.93 1.78 1.79 1.78 1.79 1.57 1.70 2.10 2.21 1.91 2.13 2.31 2.63 2.58 2.35 2.35 2.29 2.14 2.09 2.13 2.36 2.22 1.73 1.63 1.94 2.25 2.66 2.97 3.29 3.63 3.75 3.61 3.31 3.06 2.91
2.64 2.44 2.50 2.70 2.57 2.60 2.81 2.83 2.59 2.47 2.50 2.37 2.40 2.24 2.34 2.38 2.29 2.33 2.55 2.72 3.04 3.12 2.96 2.81 2.54 2.19 2.17 2.34 2.35 2.08 1.87 1.86 1.95 2.16 2.50 2.87 3.17 3.57 3.77 3.64 3.36 3.18 3.09
2.98 2.67 2.72 2.76 2.78 2.91 3.06 3.25 3.29 3.07 3.05 2.92 2.88 2.68 2.80 2.90 2.95 2.95 3.19 3.38 3.69 3.93 3.96 3.48 3.02 2.81 2.56 2.47 2.34 2.27 2.10 2.05 2.21 2.46 2.73 2.76 2.91 3.26 3.56 3.63 3.49 3.33 3.25
3.52 3.23 3.11 3.25 3.08 3.04 3.34 3.59 3.50 3.55 3.44 3.56 3.56 3.23 3.30 3.32 3.36 3.63 3.73 4.06 4.14 4.30 4.35 4.03 3.40 3.12 2.97 2.74 2.50 2.39 2.34 2.27 2.40 2.55 2.83 2.83 2.79 3.04 3.43 3.68 3.71 3.65 3.68
3.91 3.77 3.57 3.49 3.43 3.34 3.56 3.92 4.07 3.91 3.88 3.85 3.99 3.79 3.70 3.74 3.90 4.03 4.10 4.39 4.33 4.15 4.31 4.15 3.64 3.37 3.15 3.03 2.63 2.36 2.42 2.62 2.56 2.62 2.91 2.91 2.78 2.82 3.17 3.64 3.98 4.17 4.27
4.13 3.94 3.93 3.67 3.89 4.03 4.28 4.36 4.50 4.65 4.58 4.39 4.31 4.36 4.24 4.31 4.48 4.39 4.57 4.73 4.58 4.34 4.40 4.33 4.13 3.73 3.49 3.40 3.10 2.75 2.68 2.78 2.81 3.00 3.15 3.11 3.06 3.03 3.23 3.48 3.80 4.10 4.34
4.10 4.14 4.27 3.99 4.09 4.40 4.48 4.56 4.82 5.18 5.23 5.00 4.77 4.75 4.65 4.82 4.97 5.07 4.99 4.85 4.71 4.52 4.50 4.64 4.43 4.05 3.92 3.91 3.64 3.20 2.88 2.99 3.09 3.14 3.23 3.23 3.38 3.31 3.39 3.32 3.45 3.72 4.02
4.06 4.07 4.30 4.52 4.39 4.65 4.81 4.92 5.19 5.51 5.68 5.50 5.28 5.10 5.13 5.14 5.07 5.25 5.30 5.23 5.00 4.88 4.84 4.49 4.49 4.32 4.28 4.17 3.67 3.41 3.04 2.92 3.12 3.09 3.17 3.19 3.43 3.54 3.56 3.29 3.34 3.67 3.91
4.18 4.30 4.42 4.77 4.82 5.13 5.28 5.17 5.39 5.58 5.63 5.57 5.53 5.48 5.60 5.69 5.49 5.52 5.46 5.40 5.27 5.26 5.19 4.98 4.89 4.78 4.50 4.29 3.79 3.52 3.27 2.99 2.99 2.96 2.92 3.01 3.07 3.12 3.25 3.26 3.27 3.24 3.55
4.46 4.56 4.56 4.74 5.04 5.21 5.35 5.40 5.82 5.87 5.69 5.89 6.14 6.03 6.17 6.26 6.00 5.91 5.82 5.72 5.45 5.32 5.27 5.17 5.00 4.85 4.50 4.31 4.16 3.86 3.43 3.02 2.93 2.84 2.71 2.78 2.77 2.74 2.90 2.99 3.22 3.18 3.12
4.51 4.68 4.93 5.06 5.13 5.26 5.71 6.20 6.64 7.01 6.95 6.83 7.02 7.07 6.83 6.72 6.63 6.38 6.45 6.18 5.78 5.54 5.30 5.09 4.91 4.63 4.23 4.19 4.22 4.35 3.97 3.59 2.91 2.46 2.44 2.41 2.36 2.36 2.49 2.60 2.79 2.91 2.88
4.27 4.55 4.78 5.09 5.48 6.03 6.69 7.18 7.49 7.89 8.06 7.78 7.47 7.34 7.07 6.86 6.68 6.36 6.19 6.12 5.81 5.27 5.07 4.91 4.67 4.51 4.25 4.10 3.97 4.22 4.06 3.71 3.23 2.81 2.40 2.20 2.20 2.29 2.34 2.42 2.46 2.50 2.49
3.86 4.23 4.67 5.08 5.70 6.63 7.34 7.80 8.23 8.42 8.48 8.30 7.96 7.51 7.11 6.68 6.26 5.93 5.73 5.48 5.26 4.94 4.78 4.41 4.30 4.35 4.33 4.05 3.88 3.61 3.37 3.23 3.33 3.13 2.69 2.42 2.32 2.24 2.17 2.11 2.14 2.25 2.29
3.63 4.00 4.46 4.93 5.66 6.42 7.06 7.69 8.26 8.47 8.45 8.17 7.70 7.11 6.58 6.11 5.64 5.20 4.96 4.73 4.51 4.30 4.11 3.84 3.79 3.86 3.96 3.87 3.76 3.65 3.49 3.32 3.11 3.01 2.90 2.80 2.67 2.38 2.20 2.12 2.07 2.08 2.07
3.30 3.68 4.17 4.63 5.16 5.79 6.26 6.86 7.33 7.57 7.51 7.10 6.51 5.88 5.46 5.21 4.94 4.62 4.33 4.11 3.80 3.61 3.43 3.30 3.19 3.16 3.30 3.38 3.41 3.40 3.44 3.42 3.30 3.25 3.04 2.86 2.77 2.53 2.33 2.20 2.12 2.08 2.02